Lyndonville, VT

5:53 PM EDT on April 25, 2017 (GMT -0400)
Lyndonville

Weather History for KCDA - June, 2014

Change the Weather History Date:

Tuesday, June 10, 2014

  Actual Average (K1V4) Record (K1V4)
Temperature  
Mean Temperature 64 °F -  
Max Temperature 72 °F 70 °F 93 °F (2008)
Min Temperature 56 °F 48 °F 30 °F (1912)
Growing Degree Days 14 (Base 50)    
Moisture  
Dew Point 54 °F    
Average Humidity 68    
Maximum Humidity 82    
Minimum Humidity 53    
Precipitation  
Precipitation 0.00 in - - ()
Sea Level Pressure  
Sea Level Pressure 30.03 in    
Wind  
Wind Speed 3 mph (NNE)    
Max Wind Speed 12 mph    
Max Gust Speed -    
Visibility 10 miles    
Events      
Averages and records for this station are not official NWS values.
T = Trace of Precipitation, MM = Missing Value Source: NWS Daily Summary

Daily Weather History Graph

Daily Weather History Graph

Search for Another Location

Airport or City:

Trip Planner

Search our weather history database for the weather conditions in past years. The results will help you decide how hot, cold, wet, or windy it might be!

Date:

Astronomy

Jun. 10, 2014 Rise Set
Actual Time 5:02 AM EDT 8:32 PM EDT
Civil Twilight 4:26 AM EDT 9:09 PM EDT
Nautical Twilight 3:38 AM EDT 9:57 PM EDT
Astronomical Twilight 2:36 AM EDT 10:59 PM EDT
Moon 5:49 PM EDT (6/10) 3:13 AM EDT (6/10)
Length of Visible Light 16h 42m
Length of Day
15h 29m
Waxing Gibbous, 92% of the Moon is Illuminated
Jun 10
Waxing Gibbous
Jun 13
Full
Jun 19
Last Quarter
Jun 27
New
Jul 5
First Quarter

Hourly Weather History & Observations

Time (EDT) Temp. Dew Point Humidity Pressure Visibility Wind Dir Wind Speed Gust Speed Precip Events Conditions
12:15 AM 68.0 °F 51.4 °F 55% 29.99 in 10.0 mi SE 3.5 mph - N/A   Mostly Cloudy
12:35 AM 64.9 °F 53.1 °F 65% 29.99 in 10.0 mi Calm Calm - N/A   Mostly Cloudy
12:55 AM 65.3 °F 52.5 °F 63% 29.98 in 10.0 mi Calm Calm - N/A   Overcast
1:15 AM 65.8 °F 51.6 °F 60% 29.98 in 10.0 mi Calm Calm - N/A   Overcast
1:35 AM 67.3 °F 51.1 °F 56% 29.98 in 10.0 mi Calm Calm - N/A   Overcast
1:55 AM 66.6 °F 52.0 °F 59% 29.97 in 10.0 mi Calm Calm - N/A   Overcast
2:15 AM 64.6 °F 53.4 °F 67% 29.97 in 10.0 mi East 3.5 mph - N/A   Overcast
2:35 AM 64.0 °F 52.5 °F 66% 29.97 in 10.0 mi Calm Calm - N/A   Overcast
2:55 AM 63.9 °F 53.4 °F 69% 29.98 in 10.0 mi Calm Calm - N/A   Overcast
3:15 AM 63.9 °F 53.1 °F 68% 29.98 in 10.0 mi Calm Calm - N/A   Light Drizzle
3:35 AM 63.5 °F 53.4 °F 70% 29.98 in 10.0 mi Calm Calm - N/A   Overcast
3:55 AM 61.7 °F 53.8 °F 75% 29.96 in 10.0 mi North 3.5 mph - N/A   Mostly Cloudy
4:15 AM 63.5 °F 52.5 °F 67% 29.96 in 10.0 mi Calm Calm - N/A   Mostly Cloudy
4:35 AM 61.2 °F 52.9 °F 74% 29.96 in 10.0 mi West 3.5 mph - N/A   Scattered Clouds
5:15 AM 60.8 °F 52.7 °F 75% 29.97 in 10.0 mi Calm Calm - N/A   Scattered Clouds
5:35 AM 61.5 °F 53.6 °F 75% 29.98 in 10.0 mi Calm Calm - N/A   Scattered Clouds
5:55 AM 61.7 °F 55.0 °F 79% 29.98 in 10.0 mi Calm Calm - N/A   Mostly Cloudy
6:15 AM 62.4 °F 56.1 °F 80% 29.98 in 10.0 mi Calm Calm - N/A   Overcast
6:35 AM 62.2 °F 56.7 °F 82% 29.98 in 10.0 mi East 4.6 mph - N/A   Overcast
6:55 AM 61.5 °F 55.6 °F 81% 29.98 in 10.0 mi Calm Calm - N/A   Overcast
7:15 AM 61.7 °F 55.8 °F 81% 29.99 in 10.0 mi Calm Calm - N/A   Overcast
7:35 AM 63.5 °F 57.0 °F 79% 30.00 in 10.0 mi Calm Calm - N/A   Overcast
7:55 AM 63.9 °F 57.2 °F 79% 30.01 in 10.0 mi Calm Calm - N/A   Overcast
8:15 AM 64.9 °F 58.1 °F 78% 30.01 in 10.0 mi Calm Calm - N/A   Overcast
8:35 AM 64.6 °F 57.4 °F 77% 30.01 in 10.0 mi Calm Calm - N/A   Overcast
8:55 AM 64.9 °F 56.8 °F 75% 30.01 in 10.0 mi Calm Calm - N/A   Overcast
9:15 AM 66.2 °F 57.0 °F 72% 30.01 in 10.0 mi West 4.6 mph - N/A   Overcast
9:35 AM 65.5 °F 54.1 °F 67% 30.01 in 10.0 mi West 4.6 mph - N/A   Overcast
9:55 AM 63.7 °F 53.4 °F 69% 30.02 in 10.0 mi West 5.8 mph - N/A   Overcast
10:15 AM 63.7 °F 54.5 °F 72% 30.02 in 10.0 mi West 5.8 mph - N/A   Overcast
10:35 AM 62.8 °F 54.5 °F 74% 30.02 in 10.0 mi West 4.6 mph - N/A   Overcast
10:55 AM 62.4 °F 54.7 °F 76% 30.03 in 10.0 mi WNW 4.6 mph - N/A   Overcast
11:15 AM 63.7 °F 55.8 °F 75% 30.03 in 10.0 mi West 5.8 mph - N/A   Overcast
11:35 AM 64.4 °F 56.1 °F 74% 30.04 in 10.0 mi West 6.9 mph - N/A   Overcast
11:55 AM 66.7 °F 54.7 °F 65% 30.03 in 10.0 mi North 6.9 mph - N/A   Overcast
12:15 PM 67.1 °F 54.5 °F 64% 30.04 in 10.0 mi North 8.1 mph - N/A   Overcast
12:35 PM 65.5 °F 53.4 °F 65% 30.04 in 10.0 mi North 9.2 mph - N/A   Overcast
12:55 PM 65.7 °F 52.9 °F 63% 30.03 in 10.0 mi NNE 11.5 mph - N/A   Overcast
1:15 PM 65.3 °F 52.7 °F 64% 30.02 in 10.0 mi NE 8.1 mph - N/A   Overcast
2:15 PM 70.5 °F 54.5 °F 57% 30.02 in 10.0 mi NNE 5.8 mph - N/A   Mostly Cloudy
2:35 PM 69.8 °F 54.7 °F 59% 30.03 in 10.0 mi North 5.8 mph - N/A   Overcast
2:55 PM 70.0 °F 53.8 °F 56% 30.03 in 10.0 mi NE 3.5 mph - N/A   Overcast
3:35 PM 70.9 °F 55.4 °F 58% 30.04 in 10.0 mi North 3.5 mph - N/A   Overcast
5:15 PM 71.8 °F 55.0 °F 55% 30.05 in 10.0 mi NE 8.1 mph - N/A   Mostly Cloudy
5:55 PM 70.7 °F 54.1 °F 56% 30.06 in 10.0 mi NE 6.9 mph - N/A   Mostly Cloudy
6:15 PM 70.7 °F 53.2 °F 54% 30.07 in 10.0 mi North 9.2 mph - N/A   Scattered Clouds
6:35 PM 70.2 °F 52.5 °F 53% 30.07 in 10.0 mi NNE 8.1 mph - N/A   Clear
7:15 PM 67.3 °F 52.3 °F 59% 30.08 in 10.0 mi ENE 3.5 mph - N/A   Clear
7:55 PM 64.9 °F 53.2 °F 66% 30.10 in 10.0 mi Calm Calm - N/A   Clear
8:15 PM 63.5 °F 52.7 °F 68% 30.11 in 10.0 mi NE 4.6 mph - N/A   Clear
8:35 PM 62.6 °F 52.5 °F 70% 30.11 in 10.0 mi NE 5.8 mph - N/A   Clear
8:55 PM 61.7 °F 51.8 °F 70% 30.11 in 10.0 mi NE 5.8 mph - N/A   Clear
9:15 PM 61.7 °F 51.8 °F 70% 30.12 in 10.0 mi NE 4.6 mph - N/A   Clear
9:55 PM 60.8 °F 50.9 °F 70% 30.13 in 10.0 mi NE 6.9 mph - N/A   Clear
10:15 PM 60.6 °F 50.9 °F 70% 30.14 in 10.0 mi ENE 6.9 mph - N/A   Clear
11:15 PM 59.2 °F 49.6 °F 71% 30.14 in 10.0 mi ENE 5.8 mph - N/A   Clear
11:35 PM 58.1 °F 49.5 °F 73% 30.15 in 10.0 mi NE 5.8 mph - N/A   Clear
11:55 PM 56.5 °F 49.1 °F 76% 30.15 in 10.0 mi NE 4.6 mph - N/A   Clear